Spencer, IA

12:23 AM CDT on April 27, 2017 (GMT -0500)
Spencer Municipal

Weather History for KSPW - April, 2014

Change the Weather History Date:

Thursday, April 3, 2014

  Actual Average Record
Temperature  
Mean Temperature 33 °F -  
Max Temperature 36 °F 49 °F 77 °F (2016)
Min Temperature 30 °F 28 °F 0 °F (1975)
Degree Days  
Heating Degree Days 32    
Moisture  
Dew Point 31 °F    
Average Humidity 91    
Maximum Humidity 96    
Minimum Humidity 86    
Precipitation  
Precipitation 0.39 in - - ()
Sea Level Pressure  
Sea Level Pressure 29.80 in    
Wind  
Wind Speed 16 mph (NNE)    
Max Wind Speed 21 mph    
Max Gust Speed -    
Visibility 4 miles    
Events Rain , Snow    
Averages and records for this station are not official NWS values.
T = Trace of Precipitation, MM = Missing Value Source: NWS Daily Summary

Daily Weather History Graph

Daily Weather History Graph

Search for Another Location

Airport or City:

Trip Planner

Search our weather history database for the weather conditions in past years. The results will help you decide how hot, cold, wet, or windy it might be!

Date:

Astronomy

Apr. 03, 2014 Rise Set
Actual Time 6:59 AM CDT 7:49 PM CDT
Civil Twilight 6:30 AM CDT 8:18 PM CDT
Nautical Twilight 5:56 AM CDT 8:52 PM CDT
Astronomical Twilight 5:20 AM CDT 9:28 PM CDT
Moon 9:23 AM CDT (4/3) No Moon Set
Length of Visible Light 13h 48m
Length of Day
12h 50m
Waxing Crescent, 17% of the Moon is Illuminated
Apr 3
Waxing Crescent
Apr 7
First Quarter
Apr 15
Full
Apr 22
Last Quarter
Apr 29
New

Hourly Weather History & Observations

Time (CDT) Temp. Windchill Dew Point Humidity Pressure Visibility Wind Dir Wind Speed Gust Speed Precip Events Conditions
12:18 AM 36.0 °F 25.3 °F 33.1 °F 89% 29.89 in 10.0 mi NE 19.6 mph - N/A   Overcast
12:29 AM 36.0 °F 25.0 °F 33.1 °F 89% 29.88 in 10.0 mi NE 20.7 mph - N/A   Overcast
12:53 AM 36.0 °F 25.6 °F 33.1 °F 89% 29.92 in 10.0 mi NE 18.4 mph - N/A   Overcast
1:53 AM 36.0 °F 25.6 °F 32.0 °F 86% 29.89 in 10.0 mi ENE 18.4 mph - N/A   Overcast
2:29 AM 35.1 °F 25.9 °F 33.1 °F 92% 29.87 in 10.0 mi ENE 13.8 mph - N/A   Overcast
2:53 AM 35.1 °F 25.2 °F 33.1 °F 92% 29.89 in 9.0 mi ENE 16.1 mph - N/A   Overcast
3:01 AM 35.1 °F 25.9 °F 33.1 °F 92% 29.86 in 7.0 mi ENE 13.8 mph - N/A   Overcast
3:53 AM 35.1 °F 25.5 °F 33.1 °F 92% 29.88 in 4.0 mi ENE 15.0 mph - N/A   Overcast
4:53 AM 35.1 °F 24.5 °F 33.1 °F 92% 29.85 in 4.0 mi ENE 18.4 mph - N/A   Overcast
5:53 AM 35.1 °F 25.9 °F 33.1 °F 92% 29.87 in 4.0 mi ENE 13.8 mph - N/A   Overcast
6:53 AM 34.0 °F 24.6 °F 32.0 °F 92% 29.88 in 4.0 mi ENE 13.8 mph - N/A   Overcast
7:53 AM 34.0 °F 23.8 °F 32.0 °F 92% 29.85 in 3.0 mi NE 16.1 mph - N/A   Overcast
8:53 AM 34.0 °F 23.8 °F 32.0 °F 92% 29.85 in 4.0 mi ENE 16.1 mph - N/A   Overcast
9:53 AM 34.0 °F 25.0 °F 32.0 °F 92% 29.86 in 4.0 mi ENE 12.7 mph - N/A   Overcast
10:46 AM 34.0 °F 25.0 °F 32.0 °F 92% 29.83 in 2.0 mi ENE 12.7 mph - N/A   Overcast
10:53 AM 34.0 °F 24.6 °F 32.0 °F 92% 29.86 in 2.0 mi ENE 13.8 mph - N/A   Overcast
11:30 AM 34.0 °F 24.6 °F 32.0 °F 92% 29.82 in 3.0 mi ENE 13.8 mph - N/A   Overcast
11:53 AM 35.1 °F 25.2 °F 32.0 °F 89% 29.84 in 2.5 mi NE 16.1 mph - N/A   Overcast
12:31 PM 35.1 °F 25.5 °F 32.0 °F 89% 29.80 in 3.0 mi NE 15.0 mph - N/A   Overcast
12:53 PM 35.1 °F 26.4 °F 32.0 °F 89% 29.84 in 4.0 mi ENE 12.7 mph - N/A   Overcast
1:53 PM 35.1 °F 26.4 °F 33.1 °F 92% 29.82 in 4.0 mi NE 12.7 mph - 0.02 in Rain Light Rain
2:53 PM 35.1 °F 25.9 °F 33.1 °F 92% 29.79 in 3.0 mi NE 13.8 mph - 0.01 in Rain Light Rain
3:13 PM 35.1 °F 24.8 °F 32.0 °F 89% 29.74 in 4.0 mi NNE 17.3 mph - 0.00 in Rain Light Rain
3:45 PM 35.1 °F 25.9 °F 32.0 °F 89% 29.76 in 4.0 mi NNE 13.8 mph - 0.02 in Rain Rain
3:53 PM 34.0 °F 25.0 °F 32.0 °F 92% 29.80 in 3.0 mi NNE 12.7 mph - 0.02 in Rain Light Rain
4:23 PM 34.0 °F 24.2 °F 30.9 °F 89% 29.76 in 7.0 mi NNE 15.0 mph - 0.00 in Rain Light Rain
4:53 PM 34.0 °F 23.8 °F 30.9 °F 89% 29.78 in 4.0 mi NE 16.1 mph - 0.00 in Rain Light Rain
4:58 PM 34.0 °F 23.8 °F 30.9 °F 89% 29.75 in 2.5 mi NNE 16.1 mph - 0.00 in Snow Light Snow
5:12 PM 34.0 °F 23.4 °F 30.9 °F 89% 29.73 in 3.0 mi NNE 17.3 mph - 0.01 in Rain Light Rain
5:42 PM 33.1 °F 22.2 °F 30.9 °F 92% 29.73 in 2.5 mi NNE 17.3 mph - 0.06 in Rain Heavy Rain
5:53 PM 33.1 °F 22.6 °F 30.9 °F 92% 29.77 in 2.5 mi NNE 16.1 mph - 0.09 in Rain Heavy Rain
6:04 PM 33.1 °F 22.2 °F 30.9 °F 92% 29.74 in 3.0 mi NNE 17.3 mph - 0.04 in Rain Light Freezing Rain
6:12 PM 33.1 °F 23.4 °F 30.0 °F 89% 29.76 in 4.0 mi NNE 13.8 mph - 0.05 in Rain Light Freezing Rain
6:20 PM 33.1 °F 22.6 °F 30.0 °F 89% 29.75 in 2.5 mi NNE 16.1 mph - 0.06 in Rain Light Freezing Rain
6:29 PM 33.1 °F 23.9 °F 30.9 °F 92% 29.75 in 1.8 mi NNE 12.7 mph - 0.07 in Rain Light Freezing Rain
6:32 PM 33.1 °F 23.9 °F 30.9 °F 92% 29.75 in 2.0 mi NNE 12.7 mph - 0.08 in Rain Light Freezing Rain
6:41 PM 33.1 °F 24.9 °F 30.9 °F 92% 29.76 in 3.0 mi North 10.4 mph - 0.08 in Snow Light Snow
6:46 PM 33.1 °F 22.6 °F 30.9 °F 92% 29.76 in 2.5 mi North 16.1 mph - 0.08 in Snow Light Snow
6:53 PM 33.1 °F 24.4 °F 30.9 °F 92% 29.80 in 2.0 mi North 11.5 mph - 0.10 in Snow Light Snow
7:06 PM 33.1 °F 23.0 °F 30.9 °F 92% 29.77 in 2.0 mi North 15.0 mph - 0.02 in Snow Light Snow
7:08 PM 33.1 °F 23.4 °F 30.9 °F 92% 29.77 in 1.5 mi North 13.8 mph - 0.03 in Snow Light Snow
7:53 PM 32.0 °F 24.2 °F 30.9 °F 96% 29.82 in 1.2 mi NNE 9.2 mph - 0.07 in Snow Light Snow
8:06 PM 32.0 °F 21.6 °F 30.0 °F 92% 29.77 in 2.0 mi North 15.0 mph - 0.02 in Snow Light Snow
8:18 PM 32.0 °F 22.1 °F 30.0 °F 92% 29.77 in 1.5 mi North 13.8 mph - 0.03 in Snow Light Snow
8:50 PM 32.0 °F 21.6 °F 30.2 °F 93% 29.78 in 1.0 mi North 15.0 mph - 0.05 in Snow Light Snow
8:53 PM 32.0 °F 22.1 °F 30.0 °F 92% 29.82 in 1.0 mi North 13.8 mph - 0.05 in Snow Light Snow
9:01 PM 30.9 °F 19.8 °F 30.0 °F 96% 29.75 in 1.2 mi North 16.1 mph - 0.01 in Snow Light Snow
9:17 PM 30.9 °F 19.8 °F 28.9 °F 92% 29.76 in 1.2 mi North 16.1 mph - 0.01 in Snow Light Snow
9:26 PM 30.9 °F 19.4 °F 28.9 °F 92% 29.76 in 1.8 mi North 17.3 mph - 0.01 in Snow Light Snow
9:33 PM 30.9 °F 20.2 °F 28.9 °F 92% 29.77 in 2.5 mi North 15.0 mph - 0.02 in Snow Light Snow
9:45 PM 30.9 °F 21.7 °F 28.9 °F 92% 29.76 in 2.5 mi North 11.5 mph - 0.02 in Snow Light Snow
10:53 PM 30.0 °F 18.3 °F 27.0 °F 88% 29.77 in 1.2 mi North 17.3 mph - 0.02 in Snow Light Snow
11:03 PM 30.0 °F 18.7 °F 27.0 °F 88% 29.72 in 1.5 mi North 16.1 mph - 0.00 in Snow Light Snow
11:13 PM 30.0 °F 18.7 °F 27.0 °F 88% 29.73 in 2.0 mi North 16.1 mph - 0.01 in Snow Light Snow
11:38 PM 30.0 °F 19.5 °F 27.0 °F 88% 29.74 in 3.0 mi North 13.8 mph - 0.01 in Snow Light Snow
11:53 PM 30.0 °F 19.1 °F 27.0 °F 88% 29.77 in 2.0 mi North 15.0 mph - 0.01 in Snow Light Snow